Overview Statistics Trail Chart Weather Telemetry Raw packets
 

This is the latest recevied weather packets stored in our database for station/object K7SKM. If no packets are shown the sender has not sent any weather packets the latest 10 day(s).

<< 5 6 7 8 9 10 11 >>
Time Temp. Humidity Pressure Rain* Wind** Luminosity Snow
1788637932 14.44° C 81% 1022.4 hPa 0 mm - 84 W/m² -
1788637628 15° C 81% 1022.7 hPa 0 mm - 82 W/m² -
1788637328 15° C 82% 1022.7 hPa 0 mm - 79 W/m² -
1788637022 15° C 82% 1022.6 hPa 0 mm - 74 W/m² -
1788636717 15° C 82% 1022.8 hPa 0 mm - 72 W/m² -
1788636413 15° C 81% 1022.7 hPa 0 mm - 71 W/m² -
1788636109 15° C 80% 1022.8 hPa 0 mm - 71 W/m² -
1788635808 15° C 78% 1022.8 hPa 0 mm - 71 W/m² -
1788635506 15.56° C 76% 1022.7 hPa 0 mm - 71 W/m² -
1788635205 15.56° C 77% 1022.9 hPa 0 mm - 74 W/m² -
1788634904 15.56° C 77% 1022.9 hPa 0 mm - 80 W/m² -
1788634603 15.56° C 74% 1022.9 hPa 0 mm - 87 W/m² -
1788634298 15.56° C 75% 1022.8 hPa 0 mm - 90 W/m² -
1788633992 15.56° C 74% 1022.9 hPa 0 mm - 91 W/m² -
1788633691 16.11° C 73% 1023 hPa 0 mm - 94 W/m² -
1788633390 16.11° C 74% 1023 hPa 0 mm - 103 W/m² -
1788633086 16.11° C 74% 1023.1 hPa 0 mm - 117 W/m² -
1788632780 16.11° C 77% 1023.2 hPa 0 mm - 122 W/m² -
1788632479 15.56° C 77% 1023 hPa 0 mm - 125 W/m² -
1788632174 15.56° C 78% 1023.1 hPa 0 mm - 125 W/m² -
1788631874 15° C 79% 1023 hPa 0 mm - 117 W/m² -
1788631569 15.56° C 78% 1023.1 hPa 0 mm - 105 W/m² -
1788631264 15° C 79% 1023.3 hPa 0 mm - 98 W/m² -
1788630963 15° C 80% 1023.1 hPa 0 mm - 93 W/m² -
1788630658 14.44° C 81% 1023.2 hPa 0 mm - 91 W/m² -

* Rain latest hour (hover to see other rain measurements)
** Current wind speed in m/s (hover to see current wind gust speed)